Notices

What's New in latest Release from April 7th, 2021:

- Updated Glossary, including Speed of Maximum Gust, and Total Hourly Precipitation

- Updated national and regional climate services offices contacts and prices information

- Addition of station inventory lists for 1981-2010, 1971-2000, and 1961-1990 Normals.

If you haven't already, please take our survey and provide feedback about our website: https://eccc.sondage-survey.ca/f/LanguageSelection.aspx?s=442ca660-fcf1-47c0-95a9-59707d6fd709

Hourly Data Report for March 09, 2019

MIRAMICHI RCS
NEW BRUNSWICK
Current Station Operator: ECCC - MSC

47°00'34.000" N
65°27'54.000" W
33.00 m
8100989
71744
ACQ

Download Data

Hourly Data (March 2019)
Hourly Data Report for March 9, 2019
TIME
LST
Temp Definition
°C
Dew Point Definition
°C
Rel Hum Definition
%
Precip. Amount Definition
mm

Wind Dir Definition
10's deg

Wind Spd Definition
km/h
Visibility Definition
km
Stn Press Definition
kPa
Hmdx Definition


Wind Chill Definition


Weather Definition


00:00 -7.7 -14.6 58 0.0 23 19   101.13   -15 LegendNANA
01:00 -7.6 -14.6 57 0.0 25 15   101.17   -14 LegendNANA
02:00 -7.4 -14.5 57 0.0 24 18   101.21   -14 LegendNANA
03:00 -7.7 -14.6 58 0.0 24 14   101.17   -14 LegendNANA
04:00 -8.5 -14.8 60 0.0 25 10   101.16   -13 LegendNANA
05:00 -10.5 -15.6 66 0.0 26 7   101.19   -15 LegendNANA
06:00 -12.1 -16.6 69 0.0 26 6   101.22   -16 LegendNANA
07:00 -13.6 -16.4 80 0.0 26 8   101.27   -19 LegendNANA
08:00 -10.6 -15.8 66 0.0 26 9   101.34   -16 LegendNANA
09:00 -7.6 -14.8 56 0.0 26 13   101.40   -13 LegendNANA
10:00 -4.9 -13.4 52 0.0 27 10   101.46   -9 LegendNANA
11:00 -2.4 -12.2 47 0.0 31 15   101.52   -7 LegendNANA
12:00 -4.7 -9.8 67 0.0 33 19   101.69   -11 LegendNANA
13:00 -4.7 -10.2 65 0.0 33 22   101.81   -12 LegendNANA
14:00 -2.9 -12.8 47 0.0 31 17   101.88   -8 LegendNANA
15:00 -2.4 -17.0 32 0.0 33 15   101.95   -7 LegendNANA
16:00 -2.9 -18.4 29 0.0 33 13   102.09   -8 LegendNANA
17:00 -3.1 -16.4 35 0.0 33 13   102.18   -8 LegendNANA
18:00 -4.1 -16.7 37 0.0 32 9   102.29   -8 LegendNANA
19:00 -6.4 -18.1 39 0.0 30 6   102.45   -9 LegendNANA
20:00 -7.7 -18.4 42 0.0 28 9   102.54   -12 LegendNANA
21:00 -8.6 -19.2 42 0.0 28 8   102.62   -13 LegendNANA
22:00 -9.9 -19.0 48 0.0 28 7   102.71   -14 LegendNANA
23:00 -13.8 -19.6 62 0.0 26 6   102.78   -18 LegendNANA

Notes on Data Quality.

Legend

  • E = Estimated
  • M = Missing
  • NA = Not Available*
  • [empty] = Indicates an unobserved value
Date modified: